This demonstration page uses our WeatherBlox Daily Observations layout. Learn more.

38.89511, -77.03637

Hourly Observations for June 12, 2018

Temp ( °F °C ) Dew Point ( °F °C ) Humidity (%) Winds ( mph kmh ) Pressure ( in mb ) Visibility ( mi km ) Precip ( " mm )
12:52 am 00:52 Mostly Cloudy 62 16.7 56 13.3 80 80 E 5 7 30.18 1022 10 16.09344 0 0
1:52 am 01:52 Mostly Cloudy 62 16.7 55 12.8 78 78 E 5 7 30.18 1022 10 16.09344 0 0
2:52 am 02:52 Mostly Cloudy 60 15.6 53 11.7 78 78 E 6 9 30.18 1022 10 16.09344 0 0
4:52 am 04:52 Partly Cloudy 58 14.4 54 12.2 87 87 ENE 7 11 30.18 1022 10 16.09344 0 0
5:49 am 05:49 Mostly Cloudy 57 14 54 12 88 88 ENE 7 11 30.21 1023 10 16.09344 0 0
5:52 am 05:52 Mostly Cloudy 58 14.4 54 12.2 87 87 ENE 7 11 30.21 1023 10 16.09344 0 0
6:00 am 06:00 Partly Cloudy 58 14.4 54 12.2 87 87 ENE 6 9 30.21 1023 10 16.09344 0 0
6:27 am 06:27 Mostly Cloudy 59 15 54 12.2 83 83 ENE 5 7 30.21 1023 10 16.09344 0 0
6:52 am 06:52 Mostly Cloudy 60 15.6 55 12.8 84 84 ENE 3 6 30.21 1023 10 16.09344 0 0
7:52 am 07:52 Mostly Cloudy 63 17.2 56 13.3 78 78 ENE 3 6 30.21 1023 10 16.09344 0 0
8:52 am 08:52 Mostly Cloudy 64 17.8 56 13.3 75 75 SE 8 13 30.21 1023 10 16.09344 0 0
9:10 am 09:10 Partly Cloudy 66 18.9 57 13.9 73 73 SSE 7 11 30.24 1024 10 16.09344 0 0
9:52 am 09:52 Partly Cloudy 67 19.4 57 13.9 71 71 SSW 6 9 30.21 1023 10 16.09344 0 0
10:52 am 10:52 Mostly Sunny 70 21.1 56 13.3 61 61 Calm 30.21 1023 10 16.09344 0 0
11:52 am 11:52 Mostly Sunny 73 22.8 56 13.3 55 55 SSW 5 7 30.21 1023 10 16.09344 0 0
12:52 pm 12:52 Mostly Sunny 74 23.3 56 13.3 54 54 SSW 8 13 30.18 1022 10 16.09344 0 0
1:52 pm 13:52 Mostly Sunny 76 24.4 55 12.8 48 48 SSW 12 19 30.18 1022 10 16.09344 0 0
2:52 pm 14:52 Mostly Sunny 77 25 54 12.2 45 45 SE 6 9 30.15 1021 10 16.09344 0 0
3:52 pm 15:52 Mostly Cloudy 78 25.6 59 15 52 52 S 12 19 30.15 1021 10 16.09344 0 0
4:52 pm 16:52 Mostly Cloudy 76 24.4 60 15.6 58 58 S 10 17 30.12 1020 10 16.09344 0 0
5:52 pm 17:52 Mostly Cloudy 75 23.9 61 16.1 62 62 S 12 19 30.09 1019 10 16.09344 0 0
6:52 pm 18:52 Mostly Cloudy 74 23.3 60 15.6 62 62 SSE 12 19 30.09 1019 10 16.09344 0 0
7:52 pm 19:52 Partly Cloudy 72 22.2 59 15 64 64 SSE 12 19 30.09 1019 10 16.09344 0 0
8:43 pm 20:43 Cloudy 71 21.7 61 16.1 71 71 S 12 19 30.12 1020 10 16.09344 0 0
8:52 pm 20:52 Cloudy 70 21.1 62 16.7 76 76 S 12 19 30.09 1019 10 16.09344 0 0
9:10 pm 21:10 Cloudy 70 21.1 61 16.1 73 73 S 13 20 30.12 1020 10 16.09344 0 0
9:52 pm 21:52 Cloudy 68 20 61 16.1 78 78 S 9 15 30.09 1019 10 16.09344 0 0
9:59 pm 21:59 Cloudy 68 20 61 16.1 78 78 SSW 8 13 30.12 1020 10 16.09344 0 0
10:52 pm 22:52 Cloudy 69 20.6 61 16.1 76 76 S 7 11 30.09 1019 10 16.09344 0 0
11:10 pm 23:10 Cloudy 68 20 61 16.1 78 78 S 7 11 30.12 1020 10 16.09344 0 0
11:52 pm 23:52 Cloudy 68 20 62 16.7 81 81 S 6 9 30.09 1019 10 16.09344 0 0

Powered by AerisWeather